HAZ389 ROAH-RJOO

Flight info

Callsign HAZ389
Flight time N/A
Altitude 37000
Route AMAMI Y53 MADOG Y753 IZUMI
Aircraft B738/M-SDE2E3FGHIRWXY/LB1

Departure

Time 2026-04-09 12:07
Airport Naha International Airport (ROAH)

Arrival

Time N/A
Airport Osaka Itami International Airport (RJOO)
Time Latitude Longitude Altitude Speed Heading
2026-04-09 11:30 26.20847 127.64911 27 ft 0 kts 160°
2026-04-09 11:54 26.20854 127.64908 27 ft 2 kts 160°
2026-04-09 11:54 26.20868 127.64902 27 ft 2 kts 160°
2026-04-09 11:55 26.20882 127.64896 27 ft 2 kts 160°
2026-04-09 11:55 26.20894 127.64892 27 ft 1 kts 172°
2026-04-09 11:55 26.20909 127.64893 27 ft 2 kts 181°
2026-04-09 11:55 26.20923 127.64892 27 ft 2 kts 177°
2026-04-09 11:56 26.20939 127.64891 27 ft 2 kts 179°
2026-04-09 11:56 26.20954 127.64890 27 ft 2 kts 178°
2026-04-09 11:56 26.20968 127.64890 27 ft 2 kts 178°
2026-04-09 11:56 26.20983 127.64889 27 ft 2 kts 178°
2026-04-09 11:57 26.20998 127.64889 27 ft 2 kts 178°
2026-04-09 11:57 26.21014 127.64888 27 ft 2 kts 178°
2026-04-09 11:57 26.21024 127.64888 27 ft 0 kts 178°
2026-04-09 12:01 26.21023 127.64888 27 ft 0 kts 178°
2026-04-09 12:01 26.21015 127.64888 27 ft 2 kts 178°
2026-04-09 12:02 26.20992 127.64889 27 ft 4 kts 178°
2026-04-09 12:02 26.20953 127.64881 27 ft 7 kts 202°
2026-04-09 12:02 26.20917 127.64832 26 ft 9 kts 256°
2026-04-09 12:02 26.20908 127.64748 24 ft 11 kts 266°
2026-04-09 12:03 26.20903 127.64665 22 ft 9 kts 266°
2026-04-09 12:03 26.20902 127.64631 22 ft 1 kts 268°
2026-04-09 12:03 26.20902 127.64625 22 ft 0 kts 267°
2026-04-09 12:04 26.20901 127.64619 22 ft 1 kts 267°
2026-04-09 12:04 26.20900 127.64596 22 ft 3 kts 266°
2026-04-09 12:04 26.20898 127.64561 22 ft 5 kts 264°
2026-04-09 12:04 26.20876 127.64532 22 ft 5 kts 193°
2026-04-09 12:05 26.20835 127.64529 22 ft 1 kts 177°
2026-04-09 12:05 26.20769 127.64532 22 ft 19 kts 177°
2026-04-09 12:05 26.20736 127.64534 22 ft 5 kts 176°
2026-04-09 12:06 26.20713 127.64536 22 ft 0 kts 175°
2026-04-09 12:06 26.20498 127.64545 22 ft 63 kts 178°
2026-04-09 12:07 26.19851 127.64575 26 ft 119 kts 178°
2026-04-09 12:07 26.18867 127.64627 151 ft 150 kts 179°
2026-04-09 12:07 26.17858 127.64658 735 ft 148 kts 179°
2026-04-09 12:07 26.16821 127.64700 1282 ft 150 kts 176°
2026-04-09 12:08 26.15664 127.64778 1484 ft 172 kts 178°
2026-04-09 12:08 26.14431 127.64827 1827 ft 187 kts 176°
2026-04-09 12:08 26.12999 127.64896 2029 ft 214 kts 177°
2026-04-09 12:08 26.11464 127.64967 2573 ft 228 kts 176°
2026-04-09 12:09 26.09811 127.65045 3098 ft 243 kts 176°
2026-04-09 12:09 26.08087 127.65125 3837 ft 249 kts 176°
2026-04-09 12:09 26.06325 127.65208 4559 ft 255 kts 176°
2026-04-09 12:09 26.04514 127.65293 5320 ft 259 kts 175°
2026-04-09 12:10 26.02728 127.65649 6019 ft 262 kts 154°
2026-04-09 12:10 26.01350 127.66952 6787 ft 263 kts 122°
2026-04-09 12:10 26.00876 127.68907 7534 ft 269 kts 89°
2026-04-09 12:10 26.01167 127.70991 8405 ft 270 kts 84°
2026-04-09 12:11 26.01253 127.73108 9080 ft 275 kts 92°
2026-04-09 12:11 26.01492 127.75249 9838 ft 281 kts 71°
2026-04-09 12:11 26.02614 127.77094 10450 ft 296 kts 46°
2026-04-09 12:11 26.04214 127.78706 10614 ft 321 kts 47°
2026-04-09 12:12 26.05787 127.80631 10851 ft 340 kts 52°
2026-04-09 12:12 26.07312 127.82684 11433 ft 348 kts 52°
2026-04-09 12:12 26.08897 127.84813 12096 ft 353 kts 52°
2026-04-09 12:12 26.10490 127.86966 12801 ft 358 kts 52°
2026-04-09 12:13 26.12077 127.89130 13463 ft 362 kts 53°
2026-04-09 12:13 26.13684 127.91326 14153 ft 366 kts 53°
2026-04-09 12:13 26.15316 127.93503 14810 ft 371 kts 50°
2026-04-09 12:13 26.17215 127.95576 15480 ft 377 kts 43°
2026-04-09 12:14 26.19328 127.97336 16112 ft 383 kts 34°
2026-04-09 12:14 26.21621 127.98888 16751 ft 386 kts 33°
2026-04-09 12:14 26.23952 128.00461 17339 ft 391 kts 33°
2026-04-09 12:14 26.26312 128.02078 17932 ft 394 kts 33°
2026-04-09 12:15 26.28694 128.03702 18505 ft 398 kts 33°
2026-04-09 12:15 26.31068 128.05312 19059 ft 402 kts 33°
2026-04-09 12:15 26.33497 128.06958 19602 ft 405 kts 33°
2026-04-09 12:15 26.35973 128.08635 20137 ft 409 kts 33°
2026-04-09 12:16 26.38412 128.10289 20645 ft 412 kts 33°
2026-04-09 12:16 26.40898 128.11975 21139 ft 416 kts 33°
2026-04-09 12:16 26.43403 128.13675 21622 ft 419 kts 33°
2026-04-09 12:16 26.45952 128.15404 22097 ft 422 kts 33°
2026-04-09 12:17 26.48473 128.17116 22546 ft 425 kts 32°
2026-04-09 12:17 26.51042 128.18861 22990 ft 428 kts 32°
2026-04-09 12:17 26.53644 128.20628 23427 ft 431 kts 32°
2026-04-09 12:17 26.56218 128.22380 23821 ft 434 kts 32°
2026-04-09 12:18 26.58844 128.24165 24276 ft 436 kts 32°
2026-04-09 12:18 26.61478 128.25958 24693 ft 438 kts 32°
2026-04-09 12:18 26.64084 128.27748 25079 ft 441 kts 34°
2026-04-09 12:18 26.66649 128.29747 25464 ft 442 kts 38°
2026-04-09 12:19 26.69046 128.31984 25830 ft 444 kts 44°
2026-04-09 12:19 26.71164 128.34564 26184 ft 445 kts 52°
2026-04-09 12:19 26.73095 128.37291 26550 ft 447 kts 52°
2026-04-09 12:19 26.75062 128.40051 26866 ft 450 kts 52°
2026-04-09 12:20 26.77069 128.42819 27199 ft 452 kts 52°
2026-04-09 12:20 26.79062 128.45586 27512 ft 454 kts 52°
2026-04-09 12:20 26.81064 128.48386 27824 ft 456 kts 52°
2026-04-09 12:20 26.83049 128.51170 28122 ft 458 kts 52°
2026-04-09 12:21 26.85081 128.54024 28418 ft 461 kts 52°
2026-04-09 12:21 26.87097 128.56860 28701 ft 463 kts 52°
2026-04-09 12:21 26.89139 128.59737 28962 ft 465 kts 52°
2026-04-09 12:21 26.91246 128.62483 29143 ft 470 kts 47°
2026-04-09 12:22 26.93662 128.65041 29350 ft 474 kts 41°
2026-04-09 12:22 26.96360 128.67296 29519 ft 478 kts 33°
2026-04-09 12:22 26.99266 128.69147 29719 ft 481 kts 28°
2026-04-09 12:22 27.02278 128.70924 29948 ft 484 kts 27°
2026-04-09 12:23 27.05263 128.72731 30357 ft 481 kts 28°
2026-04-09 12:23 27.08236 128.74558 30766 ft 479 kts 28°
2026-04-09 12:23 27.11189 128.76366 31101 ft 479 kts 27°
2026-04-09 12:23 27.14106 128.78143 31454 ft 477 kts 27°
2026-04-09 12:24 27.17091 128.79961 31818 ft 476 kts 27°
2026-04-09 12:24 27.20000 128.81734 32134 ft 475 kts 27°
2026-04-09 12:24 27.22923 128.83516 32484 ft 473 kts 27°
2026-04-09 12:24 27.25830 128.85289 32805 ft 472 kts 27°
2026-04-09 12:25 27.28772 128.87082 33093 ft 472 kts 27°
2026-04-09 12:25 27.31671 128.88850 33424 ft 470 kts 27°
2026-04-09 12:25 27.34554 128.90611 33750 ft 468 kts 27°
2026-04-09 12:25 27.37427 128.92364 34049 ft 467 kts 27°
2026-04-09 12:26 27.40262 128.94098 34300 ft 467 kts 27°
2026-04-09 12:26 27.43150 128.95862 34599 ft 466 kts 27°
2026-04-09 12:26 27.46020 128.97618 34871 ft 465 kts 27°
2026-04-09 12:26 27.48870 128.99362 35139 ft 464 kts 27°
2026-04-09 12:27 27.51741 129.01120 35373 ft 464 kts 26°
2026-04-09 12:27 27.54587 129.02863 35652 ft 463 kts 26°
2026-04-09 12:27 27.57417 129.04597 35887 ft 462 kts 26°
2026-04-09 12:27 27.60274 129.06351 36119 ft 462 kts 26°
2026-04-09 12:28 27.63104 129.08087 36354 ft 461 kts 26°
2026-04-09 12:28 27.65977 129.09851 36551 ft 461 kts 26°
2026-04-09 12:28 27.68786 129.11577 36754 ft 461 kts 26°
2026-04-09 12:28 27.71600 129.13307 36928 ft 461 kts 26°
2026-04-09 12:29 27.77326 129.16830 36941 ft 463 kts 26°
2026-04-09 12:29 27.83013 129.20335 36947 ft 460 kts 26°
2026-04-09 12:30 27.88665 129.23822 36952 ft 460 kts 26°
2026-04-09 12:30 27.94338 129.27325 36956 ft 461 kts 26°
2026-04-09 12:31 27.99972 129.30808 36959 ft 461 kts 26°
2026-04-09 12:31 28.05648 129.34323 36964 ft 461 kts 26°
2026-04-09 12:32 28.11301 129.37826 36966 ft 461 kts 26°
2026-04-09 12:32 28.16946 129.41328 36966 ft 461 kts 26°
2026-04-09 12:33 28.22606 129.44844 36966 ft 461 kts 26°
2026-04-09 12:33 28.28251 129.48357 36966 ft 461 kts 26°
2026-04-09 12:34 28.33893 129.51871 36966 ft 460 kts 26°
2026-04-09 12:34 28.39578 129.55415 36966 ft 461 kts 26°
2026-04-09 12:35 28.45230 129.58960 36965 ft 461 kts 28°
2026-04-09 12:35 28.50666 129.62909 36966 ft 462 kts 31°
2026-04-09 12:36 28.56104 129.66946 36966 ft 462 kts 31°
2026-04-09 12:36 28.61553 129.70940 36966 ft 462 kts 31°
2026-04-09 12:37 28.66989 129.74934 36966 ft 462 kts 31°
2026-04-09 12:37 28.72452 129.78947 36966 ft 462 kts 31°
2026-04-09 12:38 28.77819 129.82892 36966 ft 462 kts 31°
2026-04-09 12:38 28.83271 129.86902 36966 ft 462 kts 31°
2026-04-09 12:39 28.88712 129.90909 36966 ft 462 kts 31°
2026-04-09 12:39 28.94128 129.94904 36966 ft 462 kts 31°
2026-04-09 12:40 28.99595 129.98940 36966 ft 461 kts 31°
2026-04-09 12:41 29.07754 130.04973 36966 ft 459 kts 31°
2026-04-09 12:41 29.13146 130.08954 36966 ft 458 kts 31°
2026-04-09 12:42 29.18538 130.12929 36966 ft 459 kts 31°
2026-04-09 12:42 29.23969 130.16960 36966 ft 459 kts 31°
2026-04-09 12:43 29.29365 130.20962 36966 ft 458 kts 31°
2026-04-09 12:43 29.34745 130.24948 36966 ft 459 kts 31°
2026-04-09 12:44 29.40091 130.28989 36965 ft 459 kts 31°
2026-04-09 12:44 29.45452 130.33017 36965 ft 458 kts 31°
2026-04-09 12:45 29.46360 130.33694 36966 ft 458 kts 31°